CINOVEC Weather Reports


Display with metric or nautical units.
time (UTC)temp
F
wind
direction
speed
MPH
gust
MPH
rain 1hr
in
rain 24hr
in
rain mn
in
humidity
%
barometer
mb
20260509001729 41 20 6.0 0.0 0.00 0.00 0.00 99
20260508231728 41 20 6.0 0.0 0.00 0.00 0.00 99
20260508221929 41 10 7.0 0.0 0.00 0.00 0.00 99
20260508211728 41 10 9.0 0.0 0.00 0.00 0.00 99
20260508201729 41 360 9.0 0.0 0.00 0.00 0.00 99
20260508191829 41 360 10.0 0.0 0.00 0.00 0.00 99
20260508181728 41 10 10.0 0.0 0.00 0.00 0.00 99
20260508171728 43 350 7.0 0.0 0.00 0.00 0.00 99
20260508161929 43 360 7.0 0.0 0.00 0.00 0.00 99
20260508151729 43 10 8.0 0.0 0.00 0.00 0.00 99
20260508141728 43 10 6.0 0.0 0.00 0.00 0.00 99
20260508131828 43 10 5.0 0.0 0.00 0.00 0.00 99
20260508121728 41 10 7.0 0.0 0.00 0.00 0.00 99
20260508111729 41 360 7.0 0.0 0.00 0.00 0.00 99
20260508101929 41 360 6.0 0.0 0.00 0.00 0.00 99
20260508091728 41 340 3.0 0.0 0.00 0.00 0.00 99
20260508081728 41 330 6.0 0.0 0.00 0.00 0.00 99
20260508071830 39 340 8.0 0.0 0.00 0.00 0.00 99
20260508061730 39 350 6.0 0.0 0.00 0.00 0.00 99
20260508051728 39 350 7.0 0.0 0.00 0.00 0.00 99
20260508041929 39 340 7.0 0.0 0.00 0.00 0.00 99
20260508031728 39 340 7.0 0.0 0.00 0.00 0.00 99
20260508021729 39 340 8.0 0.0 0.00 0.00 0.00 99
20260508011828 39 350 8.0 0.0 0.00 0.00 0.00 99